Weather History for Fes-Sais, Morocco

Change the Weather History Date:

Friday, August 30, 2013

  Actual Average Record
Temperature  
Mean Temperature 76 °F -  
Max Temperature 92 °F 83 °F 105 °F (2005)
Min Temperature 61 °F 59 °F 55 °F (1996)
Cooling Degree Days 12    
Growing Degree Days 26 (Base 50)    
Moisture  
Dew Point 59 °F    
Average Humidity 57    
Maximum Humidity 88    
Minimum Humidity 21    
Precipitation  
Precipitation 0.00 in 0.02 in - ()
Sea Level Pressure  
Sea Level Pressure 30.03 in    
Wind  
Wind Speed 5 mph ()    
Max Wind Speed 9 mph    
Max Gust Speed -    
Visibility 5.8 miles    
Events      
Averages and records for this station are not official NWS values.
T = Trace of Precipitation, MM = Missing Value Source: Averaged Metar Reports

Daily Weather History Graph

Daily Weather History Graph

Search for Another Location

Airport:

Trip Planner

Search our weather history database for the weather conditions in past years. The results will help you decide how hot, cold, wet, or windy it might be!

Date:

Astronomy

Aug. 30, 2013 Rise Set
Actual Time 6:52 AM WEST 7:48 PM WEST
Civil Twilight 6:26 AM WEST 8:13 PM WEST
Nautical Twilight 5:56 AM WEST 8:43 PM WEST
Astronomical Twilight 5:25 AM WEST 9:15 PM WEST
Moon 1:27 AM WEST (8/30) 3:45 PM WEST (8/30)
Length of Visible Light 13h 47m
Length of Day
12h 56m
Waning Crescent, 31% of the Moon is Illuminated
Aug 30
Waning Crescent
Sep 5
New
Sep 12
First Quarter
Sep 19
Full
Sep 27
Last Quarter

Hourly Weather History & Observations

Time (WEST) Temp. Heat Index Dew Point Humidity Pressure Visibility Wind Dir Wind Speed Gust Speed Precip Events Conditions
12:00 AM - - - N/A% 0.00 in - SW 9.2 mph - N/A   Clear
1:00 AM 67 °F - 60 °F 73% 30.03 in 5 mi WSW 5.8 mph - -  
1:00 AM 66.2 °F - 59.0 °F 78% 30.06 in - WSW 5.8 mph - N/A   Clear
2:00 AM 66.2 °F - 60.8 °F 83% 30.06 in - SW 5.8 mph - N/A   Clear
3:00 AM 64.4 °F - 60.8 °F 88% 30.04 in - WSW 4.6 mph - N/A   Clear
4:00 AM 65 °F - 59 °F 74% 30.01 in 5 mi South 4.6 mph - -  
4:00 AM 64.4 °F - 59.0 °F 83% 30.04 in - South 4.6 mph - N/A   Clear
5:00 AM 62.6 °F - 57.2 °F 82% 30.04 in - SSE 3.5 mph - N/A   Clear
6:00 AM 60.8 °F - 55.4 °F 82% 30.04 in - Calm Calm - N/A   Clear
7:00 AM 63 °F - 59 °F 81% 30.01 in 5 mi ENE 2.3 mph - -  
7:00 AM 62.6 °F - 59.0 °F 88% 30.04 in - Variable 2.3 mph - N/A   Clear
8:00 AM 66.2 °F - 57.2 °F 73% 30.04 in - NE 4.6 mph - N/A   Clear
9:00 AM 71.6 °F - 62.6 °F 73% 30.04 in - NE 4.6 mph - N/A   Clear
10:00 AM 74 °F - 62 °F 57% 30.00 in 5 mi NNE 6.9 mph - -  
10:00 AM 73.4 °F - 62.6 °F 69% 30.06 in - Variable 6.9 mph - N/A   Clear
11:00 AM 78.8 °F - 60.8 °F 54% 30.06 in 6.2 mi Variable 6.9 mph - N/A   Partly Cloudy
12:00 PM 82.4 °F 82.9 °F 60.8 °F 48% 30.06 in 6.2 mi Variable 6.9 mph - N/A   Partly Cloudy
1:00 PM 85 °F - 62 °F 35% 29.94 in 6 mi NE 5.8 mph - -   Scattered Clouds
1:00 PM 86.0 °F 86.6 °F 62.6 °F 45% 30.04 in 6.2 mi Variable 5.8 mph - N/A   Partly Cloudy
2:00 PM 87.8 °F 87.6 °F 60.8 °F 40% 30.04 in 6.2 mi Variable 5.8 mph - N/A   Scattered Clouds
3:00 PM 91.4 °F 89.4 °F 55.4 °F 29% 30.04 in 6.2 mi Variable 6.9 mph - N/A   Scattered Clouds
4:00 PM 90 °F - 56 °F 21% 29.90 in 5 mi NNW 6.9 mph - -   Partly Cloudy
4:00 PM 89.6 °F 87.7 °F 55.4 °F 31% 30.01 in 6.2 mi Variable 8.1 mph - N/A   Scattered Clouds
5:00 PM 89.6 °F 87.7 °F 55.4 °F 31% 30.01 in 6.2 mi Variable 4.6 mph - N/A   Scattered Clouds
6:00 PM 89.6 °F 87.3 °F 53.6 °F 29% 30.01 in 6.2 mi NW 9.2 mph - N/A   Scattered Clouds
7:00 PM 87 °F - 53 °F 21% 29.92 in 5 mi WNW 6.9 mph - -   Partly Cloudy
7:00 PM 87.8 °F 85.7 °F 53.6 °F 31% 30.04 in - North - - N/A   Scattered Clouds
8:00 PM 84.2 °F - 51.8 °F 33% 30.04 in 6.2 mi NNW 9.2 mph - N/A   Partly Cloudy
9:00 PM 78.8 °F - 62.6 °F 57% 30.09 in - NW 9.2 mph - N/A   Clear
10:00 PM 77 °F - 62 °F 51% 30.04 in 6 mi WNW 5.8 mph - -  
10:00 PM 77.0 °F - 62.6 °F 61% 30.09 in - WNW 5.8 mph - N/A   Clear